• In Romania
  • List of Countries
  • For 7 days
  • Water Temperature
  • Satellite Maps
  • Weather Map
  • Weather Widgets
  • user-avatar
    Login

    Hourly Weather Kipungo

    Today, 24 November, Friday

    Time Temperature Precipitation Wind Pressure Humidity
    00:00 +21°C° 0.5 mm 1 mps 653 mmHg 75%
    01:00 +21°C° 0.5 mm 1 mps 653 mmHg 78%
    02:00 +21°C° 0.1 mm 1 mps 652 mmHg 78%
    03:00 +20°C° 0.1 mm 1 mps 652 mmHg 79%
    04:00 +20°C° 0.1 mm 1 mps 652 mmHg 80%
    05:00 +21°C° 0.2 mm 1 mps 653 mmHg 76%
    06:00 +20°C° 0.2 mm 0 mps 653 mmHg 72%
    07:00 +21°C° 0.2 mm 0 mps 654 mmHg 69%
    08:00 +25°C° 0.2 mm 1 mps 655 mmHg 60%
    09:00 +28°C° 0.2 mm 1 mps 655 mmHg 52%
    10:00 +30°C° 0.2 mm 1 mps 656 mmHg 44%
    11:00 +30°C° 0.4 mm 2 mps 655 mmHg 44%
    12:00 +30°C° 0.4 mm 2 mps 655 mmHg 44%
    13:00 +30°C° 0.4 mm 3 mps 654 mmHg 45%
    14:00 +30°C° 0 mm 2 mps 654 mmHg 44%
    15:00 +30°C° 0 mm 2 mps 654 mmHg 44%
    16:00 +30°C° 0 mm 2 mps 653 mmHg 43%
    17:00 +28°C° 0.4 mm 2 mps 653 mmHg 50%
    18:00 +26°C° 0.4 mm 1 mps 653 mmHg 58%
    19:00 +24°C° 0.4 mm 1 mps 653 mmHg 65%
    20:00 +24°C° 0.4 mm 1 mps 653 mmHg 69%
    21:00 +23°C° 0.4 mm 1 mps 653 mmHg 73%
    22:00 +22°C° 0.4 mm 1 mps 654 mmHg 76%
    23:00 +22°C° 0 mm 1 mps 653 mmHg 77%

    Tomorrow, 25 November, Saturday

    Time Temperature Precipitation Wind Pressure Humidity
    00:00 +22°C° 0 mm 1 mps 653 mmHg 78%
    01:00 +21°C° 0 mm 1 mps 653 mmHg 79%
    02:00 +21°C° 0.1 mm 1 mps 653 mmHg 81%
    03:00 +21°C° 0.1 mm 1 mps 652 mmHg 82%
    04:00 +20°C° 0.1 mm 1 mps 652 mmHg 83%
    05:00 +21°C° 0 mm 1 mps 653 mmHg 78%
    06:00 +22°C° 0 mm 1 mps 653 mmHg 73%
    07:00 +24°C° 0 mm 1 mps 654 mmHg 68%
    08:00 +27°C° 0.1 mm 1 mps 655 mmHg 57%
    09:00 +30°C° 0.1 mm 1 mps 655 mmHg 46%
    10:00 +33°C° 0.1 mm 1 mps 656 mmHg 34%
    11:00 +34°C° 0 mm 1 mps 655 mmHg 32%
    12:00 +35°C° 0 mm 1 mps 655 mmHg 29%
    13:00 +36°C° 0 mm 1 mps 654 mmHg 27%
    14:00 +34°C° 0 mm 1 mps 653 mmHg 30%
    15:00 +32°C° 0 mm 2 mps 653 mmHg 33%
    16:00 +31°C° 0 mm 2 mps 652 mmHg 36%
    17:00 +29°C° 0 mm 3 mps 652 mmHg 43%
    18:00 +27°C° 0 mm 3 mps 652 mmHg 51%
    19:00 +26°C° 0 mm 4 mps 653 mmHg 58%
    20:00 +25°C° 0 mm 4 mps 653 mmHg 64%
    21:00 +22°C° 0 mm 3 mps 653 mmHg 71%
    22:00 +21°C° 0 mm 3 mps 654 mmHg 77%
    23:00 +21°C° 0 mm 3 mps 653 mmHg 79%

    Day after tomorrow, 26 November, Sunday

    Time Temperature Precipitation Wind Pressure Humidity
    00:00 +21°C° 0 mm 3 mps 653 mmHg 81%
    01:00 +20°C° 0 mm 3 mps 653 mmHg 82%
    02:00 +20°C° 0 mm 3 mps 653 mmHg 83%
    03:00 +19°C° 0 mm 2 mps 652 mmHg 84%
    04:00 +19°C° 0 mm 2 mps 652 mmHg 85%
    05:00 +20°C° 0 mm 2 mps 653 mmHg 82%
    06:00 +20°C° 0 mm 2 mps 653 mmHg 79%
    07:00 +21°C° 0 mm 2 mps 654 mmHg 75%
    08:00 +25°C° 0 mm 2 mps 655 mmHg 61%
    09:00 +28°C° 0 mm 2 mps 655 mmHg 47%
    10:00 +31°C° 0 mm 1 mps 656 mmHg 32%
    11:00 +33°C° 0 mm 1 mps 656 mmHg 28%
    12:00 +35°C° 0 mm 1 mps 656 mmHg 23%
    13:00 +37°C° 0 mm 2 mps 655 mmHg 18%
    14:00 +37°C° 0 mm 2 mps 655 mmHg 19%
    15:00 +36°C° 0 mm 2 mps 654 mmHg 19%
    16:00 +35°C° 0 mm 2 mps 653 mmHg 19%
    17:00 +33°C° 0 mm 3 mps 653 mmHg 28%
    18:00 +29°C° 0 mm 4 mps 653 mmHg 37%
    19:00 +27°C° 0 mm 5 mps 654 mmHg 46%
    20:00 +25°C° 0 mm 5 mps 654 mmHg 54%
    21:00 +23°C° 0 mm 4 mps 654 mmHg 63%
    22:00 +21°C° 0 mm 4 mps 654 mmHg 72%
    23:00 +21°C° 0 mm 4 mps 654 mmHg 75%

    27 November, Monday

    Time Temperature Precipitation Wind Pressure Humidity
    00:00 +20°C° 0 mm 4 mps 654 mmHg 77%
    01:00 +19°C° 0 mm 4 mps 653 mmHg 80%
    02:00 +19°C° 0 mm 3 mps 653 mmHg 81%
    03:00 +18°C° 0 mm 2 mps 653 mmHg 82%
    04:00 +18°C° 0 mm 2 mps 653 mmHg 84%
    05:00 +19°C° 0 mm 2 mps 654 mmHg 80%
    06:00 +19°C° 0 mm 2 mps 654 mmHg 77%
    07:00 +20°C° 0 mm 2 mps 655 mmHg 73%
    08:00 +24°C° 0 mm 2 mps 655 mmHg 61%
    09:00 +27°C° 0 mm 2 mps 656 mmHg 49%
    10:00 +30°C° 0 mm 3 mps 656 mmHg 37%
    11:00 +32°C° 0 mm 2 mps 656 mmHg 32%
    12:00 +35°C° 0 mm 2 mps 656 mmHg 27%
    13:00 +36°C° 0 mm 2 mps 655 mmHg 21%
    14:00 +35°C° 0 mm 2 mps 655 mmHg 23%
    15:00 +34°C° 0 mm 3 mps 654 mmHg 25%
    16:00 +33°C° 0 mm 3 mps 653 mmHg 26%
    17:00 +30°C° 0 mm 4 mps 653 mmHg 34%
    18:00 +28°C° 0 mm 4 mps 654 mmHg 43%
    19:00 +26°C° 0 mm 5 mps 654 mmHg 51%
    20:00 +23°C° 0 mm 4 mps 654 mmHg 58%
    21:00 +22°C° 0 mm 4 mps 654 mmHg 65%
    22:00 +21°C° 0 mm 3 mps 654 mmHg 71%
    23:00 +20°C° 0 mm 3 mps 654 mmHg 75%

    28 November, Tuesday

    Time Temperature Precipitation Wind Pressure Humidity
    00:00 +20°C° 0 mm 2 mps 653 mmHg 79%
    01:00 +19°C° 0 mm 2 mps 653 mmHg 83%
    02:00 +18°C° 0 mm 2 mps 653 mmHg 85%
    03:00 +19°C° 0 mm 1 mps 652 mmHg 87%
    04:00 +18°C° 0 mm 1 mps 652 mmHg 89%
    05:00 +19°C° 0 mm 1 mps 653 mmHg 83%
    06:00 +21°C° 0 mm 1 mps 654 mmHg 76%
    07:00 +22°C° 0 mm 1 mps 654 mmHg 70%
    08:00 +25°C° 0 mm 1 mps 655 mmHg 56%
    09:00 +29°C° 0 mm 1 mps 656 mmHg 42%
    10:00 +33°C° 0 mm 1 mps 657 mmHg 28%
    11:00 +34°C° 0 mm 1 mps 656 mmHg 24%
    12:00 +36°C° 0 mm 1 mps 656 mmHg 21%
    13:00 +39°C° 0 mm 1 mps 655 mmHg 17%
    14:00 +37°C° 0 mm 1 mps 655 mmHg 17%
    15:00 +36°C° 0 mm 1 mps 654 mmHg 17%
    16:00 +35°C° 0 mm 1 mps 653 mmHg 18%
    17:00 +34°C° 0 mm 2 mps 653 mmHg 23%
    18:00 +31°C° 0 mm 3 mps 653 mmHg 28%
    19:00 +28°C° 0 mm 3 mps 653 mmHg 33%
    20:00 +27°C° 0 mm 3 mps 653 mmHg 40%
    21:00 +25°C° 0 mm 3 mps 654 mmHg 46%
    22:00 +24°C° 0 mm 3 mps 654 mmHg 53%
    23:00 +23°C° 0 mm 2 mps 653 mmHg 57%

    29 November, Wednesday

    Time Temperature Precipitation Wind Pressure Humidity
    00:00 +21°C° 0 mm 2 mps 653 mmHg 61%
    01:00 +21°C° 0 mm 1 mps 652 mmHg 65%
    02:00 +20°C° 0 mm 1 mps 652 mmHg 68%
    03:00 +20°C° 0 mm 1 mps 652 mmHg 70%
    04:00 +19°C° 0 mm 1 mps 652 mmHg 72%
    05:00 +21°C° 0 mm 1 mps 653 mmHg 66%
    06:00 +22°C° 0 mm 1 mps 654 mmHg 61%
    07:00 +21°C° 0 mm 0 mps 655 mmHg 55%
    08:00 +27°C° 0 mm 1 mps 655 mmHg 43%
    09:00 +30°C° 0 mm 1 mps 656 mmHg 31%
    10:00 +34°C° 0 mm 2 mps 656 mmHg 19%
    11:00 +36°C° 0 mm 2 mps 656 mmHg 17%
    12:00 +37°C° 0 mm 2 mps 655 mmHg 14%
    13:00 +39°C° 0 mm 2 mps 654 mmHg 11%
    14:00 +39°C° 0 mm 2 mps 654 mmHg 11%
    15:00 +38°C° 0 mm 2 mps 653 mmHg 11%
    16:00 +38°C° 0 mm 2 mps 653 mmHg 11%
    17:00 +35°C° 0 mm 2 mps 652 mmHg 14%
    18:00 +31°C° 0 mm 2 mps 652 mmHg 17%
    19:00 +29°C° 0 mm 2 mps 652 mmHg 20%
    20:00 +27°C° 0 mm 2 mps 653 mmHg 25%
    21:00 +26°C° 0 mm 3 mps 653 mmHg 29%
    22:00 +24°C° 0 mm 3 mps 653 mmHg 34%
    23:00 +23°C° 0 mm 2 mps 653 mmHg 38%
    Show more